Fairhope, AL

10:54 AM CDT on April 26, 2017 (GMT -0500)
Fairhope

Weather History for KCQF - February, 2013

Change the Weather History Date:

Tuesday, February 26, 2013

  Actual Average (KBFM) Record (KBFM)
Temperature  
Mean Temperature 60 °F -  
Max Temperature 68 °F 62 °F 77 °F (2001)
Min Temperature 53 °F 46 °F 37 °F (2006)
Degree Days  
Heating Degree Days 4    
Growing Degree Days 10 (Base 50)    
Moisture  
Dew Point 44 °F    
Average Humidity 63    
Maximum Humidity 94    
Minimum Humidity 48    
Precipitation  
Precipitation 0.00 in - - ()
Sea Level Pressure  
Sea Level Pressure 29.74 in    
Wind  
Wind Speed 9 mph (WSW)    
Max Wind Speed 17 mph    
Max Gust Speed 24 mph    
Visibility 8 miles    
Events      
Averages and records for this station are not official NWS values.
T = Trace of Precipitation, MM = Missing Value Source: NWS Daily Summary

Daily Weather History Graph

Daily Weather History Graph

Search for Another Location

Airport or City:

Trip Planner

Search our weather history database for the weather conditions in past years. The results will help you decide how hot, cold, wet, or windy it might be!

Date:

Astronomy

Feb. 26, 2013 Rise Set
Actual Time 6:20 AM CST 5:48 PM CST
Civil Twilight 5:56 AM CST 6:12 PM CST
Nautical Twilight 5:28 AM CST 6:40 PM CST
Astronomical Twilight 5:00 AM CST 7:08 PM CST
Moon 6:55 PM CST 6:30 AM CST
Length of Visible Light 12h 16m
Length of Day
11h 27m
Full, 99% of the Moon is Illuminated
Feb 26
Full
Mar 4
Last Quarter
Mar 11
New
Mar 19
First Quarter
Mar 27
Full

Hourly Weather History & Observations

Time (CST) Temp. Dew Point Humidity Pressure Visibility Wind Dir Wind Speed Gust Speed Precip Events Conditions
12:15 AM 68.0 °F 64.4 °F 88% 29.56 in 7.0 mi SSW 4.6 mph - N/A   Overcast
12:35 AM 66.2 °F 64.4 °F 94% 29.57 in 7.0 mi SSW 3.5 mph - N/A   Overcast
12:55 AM 64.4 °F 62.6 °F 94% 29.56 in 7.0 mi SW 5.8 mph - N/A   Overcast
1:15 AM 64.4 °F 60.8 °F 88% 29.56 in 7.0 mi SW 6.9 mph - N/A   Overcast
1:35 AM 64.4 °F 59.0 °F 83% 29.55 in 7.0 mi WSW 9.2 mph - N/A   Overcast
2:15 AM 62.6 °F 55.4 °F 77% 29.56 in 7.0 mi WSW 10.4 mph - N/A   Mostly Cloudy
2:35 AM 62.6 °F 51.8 °F 68% 29.57 in 7.0 mi WSW 11.5 mph - N/A   Mostly Cloudy
2:55 AM 60.8 °F 51.8 °F 72% 29.57 in 10.0 mi WSW 6.9 mph - N/A   Scattered Clouds
3:15 AM 60.8 °F 51.8 °F 72% 29.58 in 7.0 mi WSW 10.4 mph 16.1 mph N/A   Clear
3:35 AM 60.8 °F 50.0 °F 68% 29.58 in 10.0 mi WSW 10.4 mph 16.1 mph N/A   Clear
3:55 AM 60.8 °F 50.0 °F 68% 29.58 in 7.0 mi West 8.1 mph - N/A   Clear
4:15 AM 60.8 °F 48.2 °F 63% 29.59 in 5.0 mi WSW 9.2 mph - N/A   Haze
4:35 AM 59.0 °F 46.4 °F 63% 29.59 in 10.0 mi West 8.1 mph - N/A   Clear
4:55 AM 59.0 °F 46.4 °F 63% 29.60 in 7.0 mi WSW 4.6 mph - N/A   Clear
5:15 AM 59.0 °F 46.4 °F 63% 29.61 in 10.0 mi WSW 9.2 mph - N/A   Clear
5:35 AM 57.2 °F 46.4 °F 67% 29.62 in 10.0 mi WSW 12.7 mph 18.4 mph N/A   Clear
5:55 AM 57.2 °F 44.6 °F 63% 29.63 in 7.0 mi WSW 12.7 mph 16.1 mph N/A   Clear
6:15 AM 57.2 °F 37.4 °F 48% 29.64 in 10.0 mi WSW 11.5 mph 20.7 mph N/A   Clear
6:35 AM 55.4 °F 37.4 °F 51% 29.65 in 10.0 mi West 12.7 mph 18.4 mph N/A   Clear
7:15 AM 55.4 °F 37.4 °F 51% 29.68 in 10.0 mi West 10.4 mph - N/A   Clear
7:35 AM 55.4 °F 39.2 °F 54% 29.69 in 7.0 mi West 8.1 mph - N/A   Clear
7:55 AM 53.6 °F 37.4 °F 54% 29.71 in 7.0 mi West 9.2 mph 18.4 mph N/A   Clear
8:15 AM 53.6 °F 37.4 °F 54% 29.71 in 7.0 mi West 8.1 mph 18.4 mph N/A   Scattered Clouds
8:35 AM 53.6 °F 37.4 °F 54% 29.72 in 7.0 mi West 11.5 mph 16.1 mph N/A   Mostly Cloudy
8:55 AM 53.6 °F 37.4 °F 54% 29.73 in 7.0 mi West 11.5 mph 17.3 mph N/A   Scattered Clouds
9:15 AM 55.4 °F 37.4 °F 51% 29.74 in 7.0 mi WSW 10.4 mph 19.6 mph N/A   Clear
9:35 AM 55.4 °F 37.4 °F 51% 29.74 in 7.0 mi West 12.7 mph 19.6 mph N/A   Clear
9:55 AM 55.4 °F 37.4 °F 51% 29.75 in 7.0 mi WSW 12.7 mph 20.7 mph N/A   Clear
10:15 AM 55.4 °F 37.4 °F 51% 29.75 in 10.0 mi WSW 11.5 mph 19.6 mph N/A   Clear
10:35 AM 55.4 °F 37.4 °F 51% 29.76 in 5.0 mi WSW 12.7 mph 19.6 mph N/A   Haze
10:55 AM 55.4 °F 39.2 °F 54% 29.77 in 7.0 mi WSW 17.3 mph 24.2 mph N/A   Unknown
11:15 AM 55.4 °F 39.2 °F 54% 29.78 in 10.0 mi WSW 13.8 mph 24.2 mph N/A   Clear
11:35 AM 55.4 °F 41.0 °F 58% 29.78 in 10.0 mi WSW 15.0 mph 20.7 mph N/A   Clear
11:55 AM 55.4 °F 41.0 °F 58% 29.77 in 10.0 mi WSW 13.8 mph 19.6 mph N/A   Clear
12:15 PM 57.2 °F 41.0 °F 55% 29.77 in 7.0 mi WSW 15.0 mph 21.9 mph N/A   Clear
12:35 PM 57.2 °F 42.8 °F 59% 29.76 in 10.0 mi WSW 16.1 mph 24.2 mph N/A   Clear
12:55 PM 57.2 °F 42.8 °F 59% 29.76 in 7.0 mi WSW 16.1 mph 23.0 mph N/A   Clear
1:15 PM 57.2 °F 44.6 °F 63% 29.75 in 7.0 mi SW 15.0 mph 20.7 mph N/A   Clear
1:35 PM 57.2 °F 42.8 °F 59% 29.74 in 10.0 mi SW 12.7 mph - N/A   Clear
1:55 PM 57.2 °F 42.8 °F 59% 29.74 in 7.0 mi SW 11.5 mph 17.3 mph N/A   Clear
2:15 PM 59.0 °F 44.6 °F 59% 29.74 in 10.0 mi SW 13.8 mph 21.9 mph N/A   Clear
2:35 PM 57.2 °F 42.8 °F 59% 29.74 in 10.0 mi SW 13.8 mph 21.9 mph N/A   Clear
2:55 PM 57.2 °F 42.8 °F 59% 29.75 in 10.0 mi SW 13.8 mph 23.0 mph N/A   Clear
3:15 PM 57.2 °F 44.6 °F 63% 29.75 in 7.0 mi WSW 15.0 mph 24.2 mph N/A   Clear
3:35 PM 57.2 °F 42.8 °F 59% 29.76 in 7.0 mi SW 15.0 mph 21.9 mph N/A   Clear
4:15 PM 55.4 °F 42.8 °F 63% 29.76 in 5.0 mi WSW 16.1 mph 23.0 mph N/A   Haze
4:35 PM 55.4 °F 42.8 °F 63% 29.77 in 7.0 mi WSW 13.8 mph 21.9 mph N/A   Clear
5:15 PM 55.4 °F 42.8 °F 63% 29.78 in 7.0 mi WSW 13.8 mph 23.0 mph N/A   Clear
5:35 PM 55.4 °F 42.8 °F 63% 29.79 in 7.0 mi WSW 12.7 mph 23.0 mph N/A   Clear
6:15 PM 55.4 °F 42.8 °F 63% 29.81 in 10.0 mi WSW 10.4 mph 17.3 mph N/A   Clear
6:35 PM 55.4 °F 42.8 °F 63% 29.82 in 10.0 mi WSW 12.7 mph 18.4 mph N/A   Clear
6:55 PM 55.4 °F 42.8 °F 63% 29.84 in 10.0 mi WSW 9.2 mph - N/A   Clear
7:15 PM 55.4 °F 44.6 °F 67% 29.84 in 10.0 mi West 10.4 mph - N/A   Clear
7:35 PM 55.4 °F 42.8 °F 63% 29.85 in 10.0 mi West 11.5 mph 16.1 mph N/A   Clear
7:55 PM 55.4 °F 42.8 °F 63% 29.86 in 7.0 mi West 10.4 mph 18.4 mph N/A   Clear
8:15 PM 55.4 °F 44.6 °F 67% 29.87 in 10.0 mi West 9.2 mph 16.1 mph N/A   Clear
8:35 PM 55.4 °F 44.6 °F 67% 29.88 in 10.0 mi West 9.2 mph - N/A   Clear
8:55 PM 55.4 °F 44.6 °F 67% 29.89 in 10.0 mi West 8.1 mph - N/A   Clear
9:15 PM 55.4 °F 44.6 °F 67% 29.90 in 10.0 mi West 10.4 mph - N/A   Clear
9:35 PM 55.4 °F 44.6 °F 67% 29.90 in 7.0 mi West 6.9 mph - N/A   Clear
9:55 PM 55.4 °F 44.6 °F 67% 29.91 in 7.0 mi West 6.9 mph - N/A   Clear
10:15 PM 55.4 °F 44.6 °F 67% 29.92 in 10.0 mi West 8.1 mph - N/A   Clear
10:35 PM 55.4 °F 44.6 °F 67% 29.92 in 10.0 mi West 6.9 mph - N/A   Clear
10:55 PM 55.4 °F 42.8 °F 63% 29.92 in 10.0 mi West 6.9 mph - N/A   Clear
11:15 PM 53.6 °F 42.8 °F 67% 29.93 in 7.0 mi West 5.8 mph - N/A   Clear
11:35 PM 53.6 °F 42.8 °F 67% 29.93 in 7.0 mi West 4.6 mph - N/A   Clear
11:55 PM 53.6 °F 42.8 °F 67% 29.94 in 10.0 mi West 3.5 mph - N/A   Clear